Погода в Челябинске

Погода в Челябинске : погода сейчас, прогноз погоды и архив. Всё, что Вы хотите узнать о погоде в Челябинске!

Хотите узнать прогноз погоды в Челябинске? Тогда Вам сюда: Погода в Челябинске

Поиск расширенной информации на нашем сайте:

Другие новости

Новости СМИ2

Главная страница сайта

Новости сайта

02.10.2013

Напоминаем, что на нашем новом сайте вы можете получить высокодетализированные прогнозы погоды по пунктам России, СНГ и мира (включающие важные для авиации метеовеличины, такие как направление и скорость ветра, видимость, явления погоды, количество и форма облачности, нижняя и верхняя граница облачности), а также ознакомиться с разнообразными материалами по авиационной метеорологии и подборкой полезных ссылок на эту тему.

Сайт Метеоцентр.Азия посвящён разработке технологий оптимизации авиаметеорологического обслуживания, включая проектирование и перспективное создание нескольких автоматизированных авиаметеорологических систем:
- система выпуска высокодетальных прогностических карт явлений погоды для нижнего воздушного пространства по России и ближнему зарубежью;
- система верификации прогнозов TAF (выпускаемых синоптиками официальных АМСГ РФ и ближнего зарубежья) и AUTOTAF (выпускаемых сайтом Метеоцентр.Азия) - выявление ошибок, онлайн-сопоставление с фактической погодой METAR, автоматическое внесение коррективов в прогнозы при резком отклонении фактической погоды от прогноза, подсчёт оправдываемости прогнозов по элементам и в целом;
- система обработки, анализа и отображения авиаметеорологической информации для применения провайдерами метеорологической информации.

Рекомендуем: лучшие строительные порталы Москвы

Погода в Челябинске - сегодня

Время (UTC), дата Ветер
(°,м/с) 
Видим.   Явления Облачность Т
(°С)
Тd
(°С)
f(%) Тe
(°С)
Pmin
(гПа)
dP
(гПа)
Po
(мм)
O2
(г/м3)
Тmin Tmax R s Состояние
почвы
12 25.05.17 330 (СЗ) 4{13}  20000 м    ясно 
+20.7 -2 22 +21  1015.9  0.3  741  278           
15 25.05.17 330 (СЗ) 20000 м    ясно 
+18.8 -0.9 26 +20        +21       
18 25.05.17 тихо ()   4000 м    ясно 
+10.2 +0.3 50 +10  1018.7  1.5  743  288           
21 25.05.17 тихо ()   4000 м    ясно 
+6.4 +3.3 81 +6               
00 26.05.17 110 (В) 10 км    ясно 
+7.7 +2 67 +9  1020.5  0.5  744  291           
03 26.05.17 180 (Ю) 20000 м    6/6 300 м кучево-дожд. 
[Cb calv]
+12.6 +4.7 59 +14      +6.4        сухая 
06 26.05.17 180 (Ю) 20000 м    ясно 
+20 +7.1 43 +20  1019  -0.6  744  278           
09 26.05.17 190 (Ю) 20000 м    5/5 300 м кучево-дожд. 
[Cb calv]
+23.5 +5.5 31 +24  1017.1  -1.5  742  275           
12 26.05.17 200 (Ю) 20000 м    9/9 300 м кучево-дожд. 
[Cb calv]
+23.3 +5.4 31 +23  1015.4  -1.7  741  274           
18 26.05.17 190 (Ю) 4000 м    ясно 
+16.4 +6.3 51 +18  1014.2  -0.1  740  280           
21 26.05.17 тихо ()   4000 м    ясно 
+10.8 +7.9 82 +11  1013.1  -2.1  739  285           
00 27.05.17 190 (Ю) 10 км    9/9 300 м кучево-дожд. 
[Cb calv]
+13.1 +7.6 69 +14  1012.2  -0.7  738  282           
06 27.05.17 180 (Ю) 20000 м    9/9 300 м кучево-дожд. 
[Cb calv]
+18 +8.5 54 +19  1008.4  -1.7  736  277           
09 27.05.17 150 (ЮВ) 10 км  слаб. ливневой дождь  10/10 300 м кучево-дожд. 
[Cb calv]
+15.3 +11.8 80 +21  1008  -0.6  735  278           
12 27.05.17 160 (Ю) 20000 м  {ливн. осадки}  9/9 300 м кучево-дожд. 
[Cb calv]
+19.6 +9 50 +21  1004.4  -3.1  733  274           
18 27.05.17 330 (СЗ) 4000 м    5/5 300 м кучево-дожд. 
[Cb calv]
+13.9 +10.7 81 +18  1001.5  -1.1  730  278           
21 27.05.17 330 (СЗ) 4000 м    8/8 300 м кучево-дожд. 
[Cb calv]
+13.3 +9.2 76 +15  1000.3  -1.1  730  279           
00 28.05.17 290 (З) 10 км    3/3 300 м кучево-дожд. 
[Cb calv]
+10.8 +9.2 90 +13  999.9  -0.7  729  281           
06 28.05.17 270 (З) 20000 м    8/8 300 м кучево-дожд. 
[Cb calv]
+18.9 +8.5 51 +20  998.4  -0.6  728  273           
18 28.05.17 340 (С) 4000 м    8/8 300 м кучево-дожд. 
[Cb calv]
+7.4 -0.8 56 +7  1006.7  1.4  734  288           
21 28.05.17 360 (С) 4000 м    10/10 300 м кучево-дожд. 
[Cb calv]
+5.6 +1.2 73 +5  1007.5  0.6  734  290           
00 29.05.17 340 (С) 10 км    8/8 300 м кучево-дожд. 
[Cb calv]
+3.3 -0.1 78 +3  1008.1  0.4  734  292           
06 29.05.17 330 (СЗ) 20000 м    10/10 300 м кучево-дожд. 
[Cb calv]
+4.3 -4.1 54 +3  1008.2  -0.5  735  292           
09 29.05.17 360 (С) 20000 м    8/8 300 м кучево-дожд. 
[Cb calv]
+8.4 -5.2 38 +8  1007.5  -0.3  734  288           
12 29.05.17 010 (С) 4{12}  20000 м    5/5 300 м кучево-дожд. 
[Cb calv]
+10.3 -6.5 30 +9  1007.4  0.1  734  286           
Время (UTC), дата Ветер
(°,м/с) 
Видим.   Явления Облачность Т
(°С)
Тd
(°С)
f(%) Тe
(°С)
Pmin
(гПа)
dP
(гПа)
Po
(мм)
O2
(г/м3)
Тmin Tmax R s Состояние
почвы

Для получения пояснительной информации подведите курсор к названию столбца.

ПОГОДА в Челябинске - архив

Всё, что Вы хотите узнать о погоде в Челябинске - удобно и подробно!

Выберите нужную дату (начиная с 1 января 2015* года) и нажмите кнопку "Найти".
Будут отображены архивные сводки погоды по пункту Челябинск, начиная с указанной даты.


Отображать данные в формате CSV (для использования в таблицах Excel)


Внимание! Наш архив погоды предназначен исключительно для личного некоммерческого использования в познавательных целях. Если Вам необходимы официальные справки о состоянии погоды (для производственных, юридических, коммерческих и т.п. целей), обращайтесь в органы Росгидромета.

*Примечание: данная дата относится к архиву по метеостанциям СССР (Россия, СНГ, Балтия).
Архив по метеостанциям Зарубежной Европы и Азии (кроме Китая) хранится 10 дней, по другим регионам земного шара (Китай, Африка, Америка, Австралия, Океания) - 1 день.

Челябинск - район местоположения метеостанции


Название, широта, долгота, высота метеостанции:
Челябинск (город) 55.2°ш. 61.3°д. 237 м над ур. моря [Российская Федерация]

Дополнительная информация

В oтличие oт бoльшинства пoгoдных сайтoв мы публикуем пoдрoбную метеoинфoрмацию в детальнoм прoфессиoнальнoм фoрмате.

Характеристики температуры и влажнoсти вoздуха измеряются на высoте 2 м в тени вдали oт зданий и деревьев.
Скoрoсть ветра измеряется на высoте 10 м (на урoвне рoста челoвека скoрoсть ветра ниже в 1.5-2 раза). Если метеoстанция нахoдится в гoрoде или в лесу, тo скoрoсть ветра занижена на 2-4 м/с пo сравнению с oткрытым местoм. Скoрoсть ветра над акватoриями крупных рек и oзёр, а также на вершинах хoлмoв на 2-5 м/с выше, чем в oбычных услoвиях.
Атмoсфернoе давление в разных тoчках местнoсти мoжет значительнo oтличаться oт давления на метеoстанции, в зависимoсти oт услoвий рельефа (при пoдъёме на 10 м давление пoнижается примернo на 1 мм рт.ст.).